This is the latest recevied weather packets stored in our database for station/object BARLOW-WX. If no packets are shown the sender has not sent any weather packets the latest 10 day(s).
| Time | Temp. | Humidity | Pressure | Rain* | Wind** | Luminosity | Snow |
|---|---|---|---|---|---|---|---|
| 1777441577 | 9.44° C | 87% | 986.3 hPa | 0 mm | - | - | - |
| 1777440697 | 9.44° C | 87% | 985.3 hPa | 0 mm | - | - | - |
| 1777439778 | 9.44° C | 87% | 985.4 hPa | 0 mm | - | - | - |
| 1777438908 | 9.44° C | 87% | 985.4 hPa | 0 mm | - | - | - |
| 1777437977 | 9.44° C | 85% | 986.7 hPa | 0 mm | - | - | - |
| 1777431707 | 10° C | 83% | 985.9 hPa | 0 mm | - | - | - |
| 1777429892 | 10° C | 76% | 983.9 hPa | 0 mm | - | - | - |
| 1777407375 | 11.67° C | 83% | 984.5 hPa | 0 mm | - | - | - |
| 1777404693 | 12.22° C | 82% | 983.7 hPa | 0 mm | - | - | - |
| 1777403776 | 11.67° C | 82% | 983.6 hPa | 0 mm | - | - | - |
| 1777400179 | 11.11° C | 86% | 983.7 hPa | 0 mm | - | - | - |
| 1777396575 | 10° C | 87% | 983.5 hPa | 0 mm | - | - | - |
| 1777395699 | 10° C | 87% | 983.5 hPa | 0 mm | - | - | - |
| 1777393892 | 10.56° C | 85% | 982.6 hPa | 0 mm | - | - | - |
| 1777390294 | 11.67° C | 86% | 982.3 hPa | 0 mm | - | - | - |
| 1777389374 | 11.67° C | 86% | 982.3 hPa | 0 mm | - | - | - |
| 1777388510 | 11.67° C | 86% | 982.3 hPa | 0 mm | - | - | - |
| 1777387575 | 11.67° C | 86% | 980.3 hPa | 0 mm | - | - | - |
| 1777386695 | 11.67° C | 87% | 981.1 hPa | 0 mm | - | - | - |
| 1777385774 | 10.56° C | 87% | 981 hPa | 0 mm | - | - | - |
| 1777383096 | 11.67° C | 90% | 979.8 hPa | 0 mm | - | - | - |
| 1777382174 | 10° C | 90% | 979.7 hPa | 0 mm | - | - | - |
| 1777380374 | 10° C | 86% | 980.2 hPa | 0 mm | - | - | - |
| 1777378573 | 10.56° C | 86% | 979.2 hPa | 0 mm | - | - | - |
| 1777377718 | 10.56° C | 86% | 979.2 hPa | 0 mm | - | - | - |
* Rain latest hour (hover to see other rain measurements)
** Current wind speed in m/s (hover to see current wind gust speed)